| time (UTC) | temp C | wind direction | speed KPH | gust KPH | rain 1hr cm | rain 24hr cm | rain mn cm | humidity % | barometer mb |
| 20260901131510 | 26 | 262 | 0.0 | 3.2 | 0.00 | 0.00 | 0.00 | 87 | 1016.9 |
| 20260901130049 | 26 | 267 | 0.0 | 4.8 | 0.00 | 0.00 | 0.00 | 90 | 1017.1 |
| 20260901124602 | 25 | 210 | 0.0 | 1.6 | 0.00 | 0.00 | 0.00 | 92 | 1017.3 |
| 20260901123023 | 25 | 262 | 0.0 | 1.6 | 0.00 | 0.00 | 0.00 | 94 | 1017.3 |
| 20260901121547 | 24 | 236 | 0.0 | 1.6 | 0.00 | 0.00 | 0.00 | 94 | 1017.3 |
| 20260901120031 | 23 | 214 | 0.0 | 1.6 | 0.00 | 0.00 | 0.00 | 95 | 1017.2 |
| 20260901114515 | 23 | 225 | 0.0 | 0.0 | 0.00 | 0.00 | 0.00 | 95 | 1016.8 |
| 20260901113005 | 23 | 225 | 0.0 | 0.0 | 0.00 | 0.00 | 0.00 | 95 | 1017.3 |
| 20260901111535 | 23 | 224 | 0.0 | 0.0 | 0.00 | 0.00 | 0.00 | 95 | 1017.4 |
| 20260901110008 | 23 | 224 | 0.0 | 0.0 | 0.00 | 0.00 | 0.00 | 95 | 1017.1 |
| 20260901104552 | 23 | 224 | 0.0 | 0.0 | 0.00 | 0.00 | 0.00 | 95 | 1017.0 |
| 20260901103037 | 23 | 224 | 0.0 | 0.0 | 0.00 | 0.00 | 0.00 | 95 | 1016.7 |
| 20260901101532 | 23 | 224 | 0.0 | 0.0 | 0.00 | 0.00 | 0.00 | 95 | 1016.6 |
| 20260901094550 | 23 | 224 | 0.0 | 0.0 | 0.00 | 0.00 | 0.00 | 95 | 1017.0 |
| 20260901093047 | 23 | 131 | 0.0 | 0.0 | 0.00 | 0.00 | 0.00 | 95 | 1017.0 |
| 20260901091504 | 23 | 131 | 0.0 | 0.0 | 0.00 | 0.00 | 0.00 | 95 | 1017.1 |
| 20260901090051 | 23 | 131 | 0.0 | 0.0 | 0.00 | 0.00 | 0.00 | 95 | 1016.9 |
| 20260901084524 | 23 | 131 | 0.0 | 0.0 | 0.00 | 0.00 | 0.00 | 95 | 1017.1 |
| 20260901083104 | 23 | 131 | 0.0 | 0.0 | 0.00 | 0.00 | 0.00 | 95 | 1017.1 |
| 20260901081518 | 23 | 131 | 0.0 | 0.0 | 0.00 | 0.00 | 0.00 | 95 | 1017.2 |
| 20260901080049 | 22 | 131 | 0.0 | 0.0 | 0.00 | 0.00 | 0.00 | 95 | 1017.3 |
| 20260901074518 | 22 | 131 | 0.0 | 0.0 | 0.00 | 0.03 | 0.00 | 95 | 1017.2 |
| 20260901073048 | 22 | 131 | 0.0 | 0.0 | 0.00 | 0.03 | 0.00 | 95 | 1017.3 |
| 20260901071537 | 22 | 131 | 0.0 | 0.0 | 0.00 | 0.03 | 0.00 | 95 | 1017.5 |
| 20260901070100 | 22 | 131 | 0.0 | 0.0 | 0.00 | 0.03 | 0.00 | 95 | 1017.4 |
| 20260901064505 | 22 | 131 | 0.0 | 0.0 | 0.00 | 3.10 | 0.00 | 95 | 1017.5 |
| 20260901063003 | 22 | 131 | 0.0 | 0.0 | 0.00 | 3.10 | 0.00 | 95 | 1017.8 |
| 20260901061513 | 22 | 131 | 0.0 | 0.0 | 0.00 | 3.10 | 0.00 | 95 | 1017.8 |
| 20260901060100 | 22 | 131 | 0.0 | 0.0 | 0.00 | 3.10 | 0.00 | 94 | 1017.8 |
| 20260901054551 | 22 | 131 | 0.0 | 0.0 | 0.00 | 3.35 | 0.00 | 94 | 1018.2 |
| 20260901053019 | 22 | 131 | 0.0 | 0.0 | 0.00 | 3.35 | 0.00 | 94 | 1018.5 |
| 20260901051600 | 22 | 131 | 0.0 | 0.0 | 0.00 | 3.35 | 0.00 | 94 | 1018.5 |
| 20260901050039 | 22 | 131 | 0.0 | 0.0 | 0.00 | 3.35 | 0.00 | 93 | 1018.5 |
| 20260901044509 | 22 | 131 | 0.0 | 0.0 | 0.00 | 3.35 | 0.00 | 93 | 1018.6 |
| 20260901043107 | 22 | 131 | 0.0 | 0.0 | 0.00 | 3.35 | 0.00 | 93 | 1018.6 |
| 20260901041531 | 22 | 131 | 0.0 | 0.0 | 0.00 | 3.35 | 0.00 | 93 | 1018.6 |
| 20260901040108 | 22 | 131 | 0.0 | 0.0 | 0.00 | 3.35 | 0.00 | 93 | 1018.6 |
| 20260901034502 | 22 | 131 | 0.0 | 0.0 | 0.00 | 3.35 | 3.35 | 92 | 1018.4 |
| 20260901033023 | 22 | 131 | 0.0 | 0.0 | 0.00 | 3.35 | 3.35 | 92 | 1018.3 |
| 20260901031625 | 22 | 131 | 0.0 | 0.0 | 0.00 | 3.35 | 3.35 | 91 | 1018.6 |
| 20260901030045 | 23 | 131 | 0.0 | 0.0 | 0.00 | 3.35 | 3.35 | 90 | 1018.6 |
| 20260901024551 | 23 | 131 | 0.0 | 0.0 | 0.00 | 3.35 | 3.35 | 90 | 1018.7 |
| 20260901023019 | 23 | 132 | 0.0 | 0.0 | 0.00 | 3.35 | 3.35 | 89 | 1018.9 |
| 20260901021545 | 23 | 129 | 0.0 | 1.6 | 0.00 | 3.35 | 3.35 | 89 | 1018.9 |
| 20260901020029 | 23 | 212 | 0.0 | 0.0 | 0.00 | 3.35 | 3.35 | 89 | 1019.0 |
| 20260901014559 | 23 | 209 | 0.0 | 0.0 | 0.00 | 3.35 | 3.35 | 89 | 1019.1 |
| 20260901013039 | 23 | 240 | 0.0 | 0.0 | 0.00 | 3.35 | 3.35 | 89 | 1019.0 |
| 20260901011519 | 23 | 222 | 0.0 | 0.0 | 0.00 | 3.35 | 3.35 | 88 | 1019.0 |
| 20260901010036 | 23 | 246 | 0.0 | 0.0 | 0.00 | 3.35 | 3.35 | 88 | 1018.8 |
| 20260901004515 | 23 | 245 | 0.0 | 0.0 | 0.00 | 3.35 | 3.35 | 88 | 1018.8 |
| 20260901003015 | 23 | 251 | 0.0 | 0.0 | 0.00 | 3.35 | 3.35 | 87 | 1018.8 |
| 20260901001548 | 23 | 251 | 0.0 | 1.6 | 0.00 | 3.35 | 3.35 | 87 | 1018.7 |
| 20260901000100 | 23 | 191 | 0.0 | 0.0 | 0.00 | 3.35 | 3.35 | 86 | 1018.6 |
| 20260831234542 | 23 | 151 | 0.0 | 0.0 | 0.00 | 3.35 | 3.35 | 85 | 1018.8 |
| 20260831233016 | 23 | 151 | 0.0 | 0.0 | 0.00 | 3.35 | 3.35 | 85 | 1019.0 |
| 20260831231508 | 23 | 151 | 0.0 | 0.0 | 0.00 | 3.35 | 3.35 | 84 | 1019.1 |
| 20260831230105 | 23 | 151 | 0.0 | 0.0 | 0.00 | 3.35 | 3.35 | 83 | 1019.1 |
| 20260831224554 | 23 | 151 | 0.0 | 0.0 | 0.00 | 3.35 | 3.35 | 82 | 1019.3 |
| 20260831223036 | 23 | 151 | 0.0 | 0.0 | 0.00 | 3.35 | 3.35 | 81 | 1019.4 |
| 20260831221524 | 23 | 151 | 0.0 | 0.0 | 0.00 | 3.35 | 3.35 | 80 | 1019.5 |
| 20260831220010 | 24 | 151 | 0.0 | 1.6 | 0.00 | 3.35 | 3.35 | 80 | 1019.5 |
| 20260831214600 | 24 | 69 | 0.0 | 1.6 | 0.00 | 3.35 | 3.35 | 81 | 1019.4 |
| 20260831213051 | 23 | 158 | 0.0 | 0.0 | 0.00 | 3.35 | 3.35 | 81 | 1019.3 |
| 20260831211537 | 23 | 344 | 0.0 | 3.2 | 0.00 | 3.35 | 3.35 | 81 | 1019.1 |
| 20260831210027 | 24 | 32 | 0.0 | 3.2 | 0.00 | 3.35 | 3.35 | 81 | 1019.4 |
| 20260831204531 | 24 | 82 | 0.0 | 3.2 | 0.00 | 3.35 | 3.35 | 79 | 1019.7 |
| 20260831203023 | 25 | 128 | 0.0 | 1.6 | 0.00 | 3.35 | 3.35 | 79 | 1019.4 |
| 20260831201501 | 24 | 142 | 0.0 | 1.6 | 0.00 | 3.35 | 3.35 | 79 | 1019.5 |
| 20260831200005 | 25 | 10 | 0.0 | 0.0 | 0.00 | 3.35 | 3.35 | 79 | 1019.7 |
| 20260831194607 | 25 | 43 | 0.0 | 0.0 | 0.00 | 3.35 | 3.35 | 79 | 1019.8 |
| 20260831193044 | 25 | 159 | 0.0 | 0.0 | 0.00 | 3.35 | 3.35 | 78 | 1019.9 |
| 20260831191554 | 25 | 134 | 0.0 | 0.0 | 0.00 | 3.35 | 3.35 | 78 | 1019.9 |
| 20260831190017 | 25 | 188 | 0.0 | 0.0 | 0.00 | 3.35 | 3.35 | 76 | 1019.9 |
| 20260831184517 | 25 | 86 | 0.0 | 1.6 | 0.00 | 3.35 | 3.35 | 76 | 1019.9 |
| 20260831183050 | 26 | 217 | 0.0 | 3.2 | 0.00 | 3.35 | 3.35 | 75 | 1019.9 |
| 20260831181553 | 26 | 98 | 0.0 | 3.2 | 0.00 | 3.35 | 3.35 | 76 | 1020.0 |
| 20260831180028 | 26 | 34 | 0.0 | 3.2 | 0.00 | 3.35 | 3.35 | 75 | 1020.0 |
| 20260831174604 | 26 | 120 | 0.0 | 1.6 | 0.00 | 3.35 | 3.35 | 74 | 1020.1 |
| 20260831173121 | 26 | 121 | 0.0 | 3.2 | 0.00 | 3.35 | 3.35 | 73 | 1020.3 |
| 20260831171508 | 26 | 314 | 0.0 | 4.8 | 0.00 | 3.35 | 3.35 | 73 | 1020.3 |
| 20260831170025 | 26 | 117 | 0.0 | 1.6 | 0.00 | 3.35 | 3.35 | 73 | 1020.1 |
| 20260831164602 | 27 | 139 | 0.0 | 8.0 | 0.00 | 3.35 | 3.35 | 74 | 1020.1 |
| 20260831163058 | 26 | 37 | 0.0 | 4.8 | 0.00 | 3.35 | 3.35 | 77 | 1020.3 |
| 20260831161521 | 26 | 346 | 1.6 | 4.8 | 0.00 | 3.35 | 3.35 | 74 | 1020.3 |
| 20260831160057 | 26 | 77 | 0.0 | 6.4 | 0.00 | 3.35 | 3.35 | 77 | 1020.4 |
| 20260831154519 | 26 | 127 | 0.0 | 1.6 | 0.00 | 3.35 | 3.35 | 79 | 1020.3 |
| 20260831153051 | 26 | 111 | 0.0 | 1.6 | 0.00 | 3.35 | 3.35 | 80 | 1020.3 |
| 20260831151535 | 25 | 124 | 0.0 | 3.2 | 0.00 | 3.35 | 3.35 | 81 | 1020.5 |
| 20260831150107 | 25 | 330 | 0.0 | 4.8 | 0.00 | 3.35 | 3.35 | 84 | 1020.5 |
| 20260831144531 | 23 | 326 | 0.0 | 6.4 | 0.00 | 3.35 | 3.35 | 84 | 1020.5 |
| 20260831143041 | 23 | 151 | 0.0 | 1.6 | 0.00 | 3.35 | 3.35 | 87 | 1020.4 |
| 20260831141517 | 23 | 13 | 0.0 | 4.8 | 0.00 | 3.35 | 3.35 | 89 | 1020.7 |
| 20260831140101 | 22 | 6 | 0.0 | 1.6 | 0.00 | 3.35 | 3.35 | 89 | 1020.6 |
| 20260831134522 | 22 | 99 | 0.0 | 0.0 | 0.00 | 3.35 | 3.35 | 92 | 1020.5 |
| 20260831133059 | 21 | 124 | 0.0 | 0.0 | 0.00 | 3.35 | 3.35 | 91 | 1020.6 |